[[{"header":{"parameterUnit":"m.s-1","parameterCategory":1,"la1":30.2991,"la2":30.254,"lo1":-89.0895,"lo2":-89.0444,"dy":0.0017,"dx":0.0017,"nx":28,"ny":28,"refTime":"2025-07-16T09:00:00:Z","depth":0,"parameterNumber":2,"parameterNumberName":"U-component_of_WINDS"},"data":[0,0,0,0,0,0,0,0,0,0,0,0,0,0,0,0,0,0,0,0,0,0,0,0,0,0,0,0,0,0,0,0,0,0,0,0,0,0,0,0,0,0,0,0,0,0,0,0,0,0,0,0,0,0,0,0,0,0,1.6076,1.6073,0,1.5778,1.5775,1.5771,1.556,1.5558,1.5556,1.5555,1.5238,1.5231,1.5225,0,0,0,0,0,0,0,0,0,0,0,0,0,1.6455,1.6449,1.6076,1.6073,1.6069,1.5779,1.5774,1.577,1.556,1.5558,1.5556,1.5554,1.524,1.5232,1.5224,0,0,0,0,0,0,0,0,0,0,0,0,0,1.6237,1.6447,1.6077,1.5929,1.5913,1.5779,1.5774,1.5769,1.556,1.5558,1.5555,1.5553,1.5243,1.5233,1.5223,1.5209,0,0,1.5191,1.5187,0,0,0,0,0,0,0,0,1.6249,1.6223,1.5955,1.5939,1.5921,1.5704,1.5791,1.5581,1.5561,1.5694,1.5555,1.5552,1.5394,1.5371,1.532,1.5194,1.518,1.519,1.5184,1.518,1.5177,0,0,0,0,0,0,0,1.6265,1.6235,1.5958,1.5951,1.593,1.5875,1.5841,1.5751,1.5561,1.5682,1.5666,1.5634,1.5384,1.5331,1.5311,1.5176,1.5191,1.5181,1.5175,1.5171,1.5023,1.5025,0,0,0,0,0,0,1.6304,1.6249,1.5967,1.5949,1.6083,1.587,1.5832,1.5776,1.5562,1.5527,1.5637,1.5626,1.535,1.5324,1.53,1.5269,1.518,1.517,1.5164,1.5021,1.5024,1.5026,0,0,0,0,0,0,1.6313,1.6281,1.5979,1.6094,1.6052,1.5866,1.5804,1.5771,1.5717,1.5528,1.5492,1.5618,1.5347,1.5314,1.5234,1.5255,1.5165,1.5156,1.5018,1.5022,1.5025,1.521,0,0,0,0,0,0,1.6325,1.6286,1.628,1.6096,1.6047,1.5922,1.5806,1.5767,1.5702,1.5684,1.55,1.5467,1.5342,1.5251,1.5224,1.5239,1.5148,1.5015,1.502,1.5024,1.5201,1.5219,1.5235,0,0,0,0,0,1.6339,1.6341,1.6281,1.6248,1.6037,1.5924,1.5895,1.5755,1.5704,1.5696,1.5575,1.5473,1.5259,1.5244,1.5212,1.5225,1.5013,1.5019,1.5024,1.5193,1.5215,1.5234,0,0,0,0,0,0,1.6528,1.6314,1.6245,1.6188,1.6077,1.5888,1.5873,1.5783,1.5679,1.5667,1.5494,1.5454,1.5392,1.53,1.5288,1.5201,1.5123,1.5122,1.5263,1.5282,1.5299,1.5321,1.5139,0,0,0,0,0,1.6564,1.6494,1.6309,1.6276,1.6225,1.606,1.6005,1.5908,1.5783,1.5733,1.5605,1.5486,1.5391,1.5332,1.5234,1.5187,1.5143,1.518,1.5198,1.5212,1.5213,1.5182,1.5196,1.5043,1.5043,1.5043,0,0,1.6635,1.651,1.6475,1.6312,1.6213,1.6142,1.6021,1.5949,1.5894,1.5721,1.5638,1.5542,1.5396,1.5334,1.5299,1.5255,1.5246,1.5219,1.5232,1.5224,1.5188,1.5203,1.5216,1.5047,1.5046,1.5045,0,0,1.6729,1.6628,1.659,1.6496,1.6351,1.6242,1.6234,1.606,1.599,1.5906,1.5776,1.5706,1.5546,1.5449,1.5378,1.544,1.5342,1.5413,1.55,1.5472,1.5484,1.5494,1.5515,1.5525,1.5414,1.5415,1.5415,0,1.6835,1.6725,1.6581,1.6519,1.6451,1.6297,1.6256,1.617,1.6,1.5955,1.5909,1.5708,1.5599,1.5512,1.5528,1.5476,1.5459,1.5432,1.5495,1.5503,1.551,1.5528,1.5537,1.5424,1.5423,1.5422,1.5421,0,1.6863,1.6789,1.6775,1.662,1.655,1.6499,1.6345,1.6291,1.6202,1.6097,1.6014,1.5879,1.5752,1.5724,1.5633,1.5624,1.5601,1.5528,1.5446,1.5537,1.5551,1.5557,1.5438,1.5435,1.5432,1.5429,0,0,1.7062,1.6832,1.683,1.6758,1.6589,1.6527,1.6469,1.635,1.6307,1.6195,1.6141,1.6012,1.5944,1.5865,1.5761,1.5737,1.5796,1.5666,1.566,1.5694,1.5777,1.5833,1.5844,1.5731,1.5732,1.5733,1.5789,0,1.7129,1.7021,1.6892,1.6826,1.6756,1.6611,1.656,1.645,1.6352,1.6275,1.6165,1.6077,1.5994,1.5945,1.5915,1.5796,1.581,1.5789,1.5676,1.5674,1.5716,1.5851,1.5909,1.5968,1.5794,1.5795,1.5795,0,1.7191,1.7093,1.7022,1.6862,1.6827,1.6785,1.6666,1.6596,1.6468,1.6398,1.6313,1.6204,1.6133,1.6063,1.5963,1.5952,1.5898,1.5833,1.5832,1.5814,1.5739,1.5836,1.5984,1.5993,1.5803,1.5802,1.5802,0,1.7344,1.7193,1.7131,1.7075,1.6886,1.686,1.6779,1.6649,1.6587,1.6482,1.6439,1.6327,1.6265,1.6179,1.6042,1.6004,1.5956,1.5875,1.5894,1.5898,1.5888,1.589,1.6029,1.5857,1.5857,1.5857,1.5857,0,1.7431,1.7393,1.7198,1.716,1.7113,1.6965,1.6922,1.6828,1.6715,1.6654,1.6521,1.6466,1.629,1.6213,1.6106,1.6039,1.6011,1.5951,1.5923,1.5962,1.597,1.5923,1.5914,1.5859,1.5859,1.5858,1.5858,0,1.7591,1.746,1.7383,1.7214,1.717,1.7143,1.6996,1.6952,1.6849,1.6774,1.6748,1.6584,1.6488,1.6344,1.6203,1.6131,1.6081,1.6035,1.6126,1.6108,1.6136,1.6135,1.6247,1.6254,1.6082,1.6083,1.6085,0,1.7655,1.7623,1.7452,1.7404,1.733,1.7254,1.7191,1.7045,1.6984,1.6838,1.6813,1.6708,1.6615,1.6468,1.6334,1.6226,1.6176,1.6223,1.6158,1.62,1.6175,1.6178,1.6174,1.6237,1.624,1.6242,1.6244,0,1.7781,1.7718,1.7635,1.753,1.746,1.7369,1.7271,1.7239,1.707,1.7009,1.6912,1.6842,1.6701,1.6598,1.6473,1.6385,1.6286,1.6266,1.6265,1.6304,1.6357,1.6328,1.6166,1.6263,1.6261,1.626,1.6259,1.6258,1.7892,1.7859,1.7735,1.7646,1.7559,1.7472,1.7424,1.7317,1.7235,1.7112,1.703,1.6938,1.6811,1.6634,1.6553,1.6476,1.6434,1.6432,1.6431,1.6432,1.6447,1.6373,1.6453,1.6452,1.6451,1.6451,1.645,0,1.8011,1.7925,1.7847,1.7717,1.7648,1.7567,1.7455,1.7402,1.7324,1.7216,1.7131,1.702,1.692,1.6781,1.667,1.6636,1.6588,1.6612,1.6611,1.6593,1.6491,1.6503,1.6653,1.6653,1.6653,1.6653,1.6653,1.6653,1.8064,1.8003,1.7927,1.7821,1.7734,1.7646,1.759,1.7508,1.7422,1.7306,1.7225,1.7137,1.7016,1.6896,1.6801,1.6762,1.6726,1.6765,1.6712,1.6619,1.66,1.6582,1.6593,1.6759,1.6759,1.6819,1.682,1.682]},{"header":{"parameterUnit":"m.s-1","parameterCategory":1,"la1":30.2991,"la2":30.254,"lo1":-89.0895,"lo2":-89.0444,"dy":0.0017,"dx":0.0017,"nx":28,"ny":28,"refTime":"2025-07-16T09:00:00:Z","depth":0,"parameterNumber":3,"parameterNumberName":"V-component_of_WINDS"},"data":[0,0,0,0,0,0,0,0,0,0,0,0,0,0,0,0,0,0,0,0,0,0,0,0,0,0,0,0,0,0,0,0,0,0,0,0,0,0,0,0,0,0,0,0,0,0,0,0,0,0,0,0,0,0,0,0,0,0,-0.1456,-0.1457,0,-0.1585,-0.1586,-0.1588,-0.1723,-0.1724,-0.1726,-0.1728,-0.1864,-0.1866,-0.1868,0,0,0,0,0,0,0,0,0,0,0,0,0,-0.133,-0.1332,-0.1455,-0.1457,-0.1459,-0.1585,-0.1586,-0.1588,-0.1722,-0.1724,-0.1727,-0.1729,-0.1864,-0.1866,-0.1868,0,0,0,0,0,0,0,0,0,0,0,0,0,-0.1415,-0.1332,-0.1455,-0.1541,-0.155,-0.1584,-0.1586,-0.1589,-0.1722,-0.1725,-0.1727,-0.173,-0.1863,-0.1866,-0.1869,-0.1831,0,0,-0.1877,-0.1879,0,0,0,0,0,0,0,0,-0.141,-0.1419,-0.1526,-0.1535,-0.1545,-0.164,-0.1592,-0.167,-0.1721,-0.1656,-0.1728,-0.1731,-0.1788,-0.1797,-0.1815,-0.1837,-0.1843,-0.1878,-0.1879,-0.1881,-0.1881,0,0,0,0,0,0,0,-0.1404,-0.1414,-0.1507,-0.1528,-0.1539,-0.1574,-0.1589,-0.1608,-0.1705,-0.1662,-0.1672,-0.1686,-0.1794,-0.1812,-0.182,-0.1845,-0.1878,-0.188,-0.1882,-0.1883,-0.1845,-0.1843,0,0,0,0,0,0,-0.1384,-0.1408,-0.1503,-0.1511,-0.1483,-0.1574,-0.1591,-0.1607,-0.1705,-0.1723,-0.1683,-0.1691,-0.1806,-0.1816,-0.1825,-0.1788,-0.1881,-0.1883,-0.1885,-0.1848,-0.1845,-0.1842,0,0,0,0,0,0,-0.1381,-0.1391,-0.1498,-0.1462,-0.1479,-0.1574,-0.159,-0.1608,-0.1627,-0.1721,-0.174,-0.1684,-0.1809,-0.1821,-0.1829,-0.1795,-0.1884,-0.1887,-0.1851,-0.1847,-0.1843,-0.1713,0,0,0,0,0,0,-0.1377,-0.1389,-0.1374,-0.1461,-0.148,-0.1496,-0.1588,-0.1609,-0.1631,-0.1643,-0.1727,-0.1743,-0.1812,-0.1824,-0.1831,-0.18,-0.1889,-0.1855,-0.1849,-0.1845,-0.1721,-0.1705,-0.1692,0,0,0,0,0,-0.1372,-0.1333,-0.1372,-0.1383,-0.1463,-0.1494,-0.1505,-0.1584,-0.1628,-0.1614,-0.1675,-0.1741,-0.1797,-0.1823,-0.1833,-0.1802,-0.1857,-0.1851,-0.1845,-0.1727,-0.1708,-0.1692,0,0,0,0,0,0,-0.124,-0.1345,-0.1391,-0.1378,-0.1426,-0.1517,-0.1502,-0.1561,-0.1598,-0.1608,-0.1705,-0.1723,-0.172,-0.1763,-0.1789,-0.1773,-0.1837,-0.1832,-0.1744,-0.1727,-0.1712,-0.1702,-0.1892,0,0,0,0,0,-0.1209,-0.1224,-0.1317,-0.1297,-0.1318,-0.1406,-0.1422,-0.1479,-0.1533,-0.1554,-0.1616,-0.1667,-0.1697,-0.1715,-0.1747,-0.1729,-0.175,-0.1713,-0.1698,-0.1686,-0.168,-0.1676,-0.1661,-0.1822,-0.1822,-0.1822,0,0,-0.1146,-0.1206,-0.1209,-0.1272,-0.1315,-0.1331,-0.1422,-0.1434,-0.1447,-0.1557,-0.1567,-0.1615,-0.1679,-0.1673,-0.1674,-0.1709,-0.1641,-0.1678,-0.1667,-0.1669,-0.1668,-0.1653,-0.1639,-0.1818,-0.1819,-0.1819,0,0,-0.1038,-0.1084,-0.1074,-0.1116,-0.1181,-0.124,-0.1237,-0.132,-0.1355,-0.1367,-0.1451,-0.1469,-0.1518,-0.1561,-0.1589,-0.1501,-0.1563,-0.1509,-0.1432,-0.1427,-0.1414,-0.1404,-0.1373,-0.1361,-0.1504,-0.1504,-0.1504,0,-0.0952,-0.0976,-0.1061,-0.1068,-0.1094,-0.1194,-0.1185,-0.1223,-0.1295,-0.1312,-0.135,-0.1415,-0.1465,-0.1472,-0.1451,-0.147,-0.1472,-0.1499,-0.1409,-0.1399,-0.1391,-0.1363,-0.1351,-0.1497,-0.1498,-0.1498,-0.1499,0,-0.0867,-0.0884,-0.0867,-0.0934,-0.0959,-0.0957,-0.1044,-0.1059,-0.1115,-0.117,-0.1183,-0.1247,-0.1296,-0.1302,-0.1356,-0.1318,-0.1337,-0.1391,-0.1457,-0.1367,-0.1342,-0.1332,-0.1487,-0.1489,-0.1491,-0.1493,0,0,-0.0678,-0.0793,-0.0785,-0.0818,-0.0898,-0.0913,-0.0919,-0.0965,-0.0976,-0.1025,-0.1032,-0.1073,-0.1124,-0.1156,-0.1216,-0.1212,-0.114,-0.1267,-0.127,-0.1241,-0.1103,-0.1061,-0.1047,-0.1182,-0.118,-0.1179,-0.1098,0,-0.0584,-0.0597,-0.0674,-0.0665,-0.0682,-0.0779,-0.0785,-0.0836,-0.0889,-0.0913,-0.0973,-0.1,-0.1065,-0.1085,-0.1085,-0.1148,-0.1113,-0.1155,-0.1192,-0.1192,-0.1171,-0.1034,-0.099,-0.091,-0.1089,-0.1087,-0.1086,0,-0.0476,-0.0516,-0.0508,-0.059,-0.0601,-0.0603,-0.0653,-0.0674,-0.0736,-0.0775,-0.0812,-0.088,-0.0894,-0.0957,-0.0979,-0.1006,-0.1026,-0.106,-0.1059,-0.1065,-0.1132,-0.1036,-0.0886,-0.0874,-0.1072,-0.1073,-0.1074,0,-0.0338,-0.0391,-0.0394,-0.0418,-0.0514,-0.0514,-0.0555,-0.0619,-0.0642,-0.0687,-0.0704,-0.075,-0.0775,-0.0811,-0.0892,-0.093,-0.0905,-0.0974,-0.0939,-0.0937,-0.0928,-0.0927,-0.0778,-0.0942,-0.0942,-0.0942,-0.0942,0,-0.0225,-0.0216,-0.0333,-0.0334,-0.0329,-0.042,-0.0413,-0.0463,-0.052,-0.0535,-0.0623,-0.0635,-0.0741,-0.0767,-0.083,-0.0839,-0.085,-0.0884,-0.0901,-0.0875,-0.0871,-0.0889,-0.0896,-0.0939,-0.094,-0.094,-0.0941,0,-0.0069,-0.0147,-0.0156,-0.0247,-0.027,-0.0262,-0.0341,-0.0347,-0.0407,-0.0425,-0.0434,-0.0528,-0.0563,-0.0647,-0.0705,-0.0748,-0.0741,-0.0772,-0.0719,-0.0729,-0.0689,-0.0692,-0.0547,-0.0533,-0.0704,-0.0703,-0.0701,0,0.0009,0.0013,-0.0077,-0.0093,-0.0129,-0.0153,-0.0178,-0.0269,-0.0291,-0.0362,-0.0361,-0.0403,-0.044,-0.0493,-0.0567,-0.0613,-0.0646,-0.0592,-0.0653,-0.0628,-0.0645,-0.0644,-0.0645,-0.0578,-0.0575,-0.0573,-0.0572,0,0.0155,0.0116,0.0085,0.004,0.0014,-0.0027,-0.0072,-0.0081,-0.0184,-0.0205,-0.0241,-0.027,-0.0329,-0.037,-0.0428,-0.0473,-0.054,-0.0552,-0.0547,-0.052,-0.0489,-0.0506,-0.0681,-0.0555,-0.0556,-0.0558,-0.0559,-0.0559,0.0274,0.0273,0.0209,0.0177,0.0133,0.0092,0.0081,0.002,-0.0011,-0.0064,-0.0118,-0.0149,-0.0215,-0.0298,-0.0339,-0.0367,-0.0401,-0.0392,-0.039,-0.0386,-0.0375,-0.0486,-0.0378,-0.0378,-0.0379,-0.0379,-0.038,0,0.0416,0.037,0.0341,0.0281,0.0255,0.0194,0.014,0.0122,0.0096,0.0042,0.0006,-0.0037,-0.0078,-0.0157,-0.0206,-0.0213,-0.0245,-0.0223,-0.0223,-0.0233,-0.0342,-0.0342,-0.0196,-0.0196,-0.0196,-0.0196,-0.0196,-0.0196,0.0487,0.0482,0.0435,0.0405,0.0358,0.0328,0.0302,0.0263,0.0219,0.0176,0.0142,0.0091,0.0025,-0.0029,-0.0071,-0.0094,-0.0108,-0.0075,-0.0107,-0.0207,-0.0225,-0.0241,-0.0242,-0.0077,-0.0077,0.0004,0.0005,0.0005]}]]